Flag for Cyprus Weather past 2 weeks in Nicosia, Cyprus

Now
48 °F

Passing clouds.


Feels Like: 44 °F
Forecast: 47 / 69 °F
Wind: 9 mph from West

Location: Ercan

Current Time: Apr 1, 2015 at 7:37:55 AM

Latest Report: Apr 1, 2015 at 6:50 AM


Visibility: N/A

Pressure: 29.83 "Hg

Humidity: 94%

Dew point: 46 °F

Location of NicosiaLocation

Historic Weather in Nicosia — Graph

°F

Nicosia temperature yesterday

Maximum temperature yesterday: 70 °F (at 12:50 PM)
Minimum temperature yesterday: 45 °F (at 5:50 AM)
Average temperature yesterday: 57 °F

Past Weeks' High & Low Weather Summary

 TemperatureHumidityPressure
High72 °F (Mar 26, 12:20 PM)100% (Mar 29, 1:00 AM)30.15 "Hg (Mar 29, 1:00 AM)
Low37 °F (Mar 23, 4:50 AM)30% (Mar 25, 2:50 PM)29.71 "Hg (Mar 29, 3:20 PM)
Average56 °F69%29.95 "Hg
* Reported Mar 17 5:20 AM — Apr 1 6:20 AM, Nicosia, Weather by CustomWeather, © 2015

Note: Actual official high and low records may vary slightly from our data, if they occured in-between our weather recording intervals... More about our weather records

Advertising

Nicosia weather history for previous 24 hours

 ConditionsComfort  
Time TempWeatherWind HumidityBarometerVisibility
6:20 AM
Wed, Apr 1
46 °FPassing clouds.6 mph100%29.80 "HgN/A
5:50 AM48 °FPassing clouds.6 mph100%29.80 "HgN/A
5:20 AM50 °FPassing clouds.6 mph100%29.80 "HgN/A
4:50 AM50 °FPassing clouds.6 mph100%29.80 "Hg5 mi
4:20 AM50 °FFog.5 mph100%29.80 "Hg3 mi
3:50 AM52 °FPartly cloudy.5 mph94%29.80 "HgN/A
3:20 AM52 °FPartly cloudy.3 mph100%29.80 "HgN/A
2:50 AM52 °FPartly cloudy.No wind100%29.80 "HgN/A
2:20 AM52 °FPartly cloudy.5 mph100%29.80 "HgN/A
1:50 AM52 °FPartly cloudy.No wind100%29.80 "HgN/A
1:20 AM52 °FPartly cloudy.No wind100%29.80 "HgN/A
12:50 AM52 °FPartly cloudy.3 mph100%29.80 "HgN/A
12:20 AM52 °FPartly cloudy.5 mph100%29.80 "HgN/A
11:50 PM
Tue, Mar 31
52 °FPartly cloudy.3 mph100%29.80 "HgN/A
11:20 PM54 °FThunderstorms. Partly cloudy.5 mph94%29.83 "Hg5 mi
10:50 PM54 °FThunderstorms. Partly cloudy.5 mph94%29.83 "Hg5 mi
10:20 PM54 °FRain showers. Partly cloudy.5 mph94%29.83 "Hg4 mi
9:50 PM55 °FRain showers. Partly cloudy.3 mph88%29.83 "Hg5 mi
9:20 PM57 °FSprinkles. Partly cloudy.No wind77%29.80 "HgN/A
8:50 PM59 °FSprinkles. Partly cloudy.7 mph72%29.80 "HgN/A
8:20 PM57 °FPartly cloudy.No wind77%29.80 "HgN/A
7:50 PM59 °FBroken clouds.6 mph72%29.80 "HgN/A
7:20 PM59 °FBroken clouds.10 mph68%29.80 "HgN/A
6:50 PM61 °FBroken clouds.13 mph63%29.77 "HgN/A
6:20 PM61 °FBroken clouds.9 mph63%29.80 "HgN/A
5:50 PM63 °FBroken clouds.10 mph59%29.80 "HgN/A
5:20 PM64 °FBroken clouds.9 mph60%29.80 "HgN/A
4:50 PM64 °FBroken clouds.13 mph60%29.80 "HgN/A
4:20 PM64 °FBroken clouds.14 mph56%29.83 "HgN/A
3:50 PM66 °FBroken clouds.13 mph52%29.83 "HgN/A
3:20 PM66 °FBroken clouds.14 mph49%29.83 "HgN/A
2:50 PM66 °FBroken clouds.16 mph52%29.86 "HgN/A
2:20 PM68 °FBroken clouds.17 mph49%29.86 "HgN/A
1:50 PM68 °FBroken clouds.15 mph46%29.86 "HgN/A
1:20 PM68 °FBroken clouds.15 mph40%29.86 "HgN/A
12:50 PM70 °FBroken clouds.15 mph40%29.89 "HgN/A
12:20 PM68 °FBroken clouds.15 mph43%29.89 "HgN/A
11:50 AM68 °FBroken clouds.14 mph49%29.92 "HgN/A
11:20 AM68 °FBroken clouds.12 mph46%29.92 "HgN/A
10:50 AM66 °FBroken clouds.8 mph52%29.92 "HgN/A
10:20 AM64 °FBroken clouds.6 mph56%29.92 "HgN/A
9:50 AM63 °FBroken clouds.5 mph59%29.92 "HgN/A
9:20 AM61 °FBroken clouds.No wind68%29.92 "HgN/A
8:50 AM55 °FBroken clouds.3 mph82%29.92 "HgN/A
8:20 AM57 °FBroken clouds.No wind72%29.92 "HgN/A
7:50 AM52 °FBroken clouds.No wind88%29.92 "HgN/A
7:20 AM46 °FPassing clouds.5 mph87%29.92 "HgN/A
Weather by CustomWeather, © 2015

See weather overviewHow to use our weather pages